Hourly Data Report for October 07, 2013

All times are specified in Local Standard Time (LST). Add 1 hour to adjust for Daylight Saving Time where and when it is observed.

POND INLET A
NUNAVUT

72°41'22.000" N
77°58'08.000" W
61.60 m
2403206
71095
YIO

Download Data

Hourly Data (October 2013)
Hourly Data Report for October 7, 2013
Temp Definition
°C
Dew Point Temp Definition
°C
Rel Hum Definition
%
Wind Dir Definition
10's deg

Wind Spd Definition
km/h
Visibility Definition
km
Stn Press Definition
kPa
Hmdx Definition


Wind Chill Definition


Weather Definition


TIME
00:00 Legend Double Dagger -7.3 -12.7 66 16 4 16.1 101.55   -9 LegendNANA
01:00 Legend Double Dagger -7.0 -13.1 62   0 16.1 101.55     LegendNANA
02:00 Legend Double Dagger -7.5 -12.1 70 15 11 16.1 101.55   -13 LegendNANA
03:00 Legend Double Dagger -7.6 -12.1 70 15 13 16.1 101.55   -13 LegendNANA
04:00 Legend Double Dagger -7.7 -12.3 70 16 13 16.1 101.55   -13 LegendNANA
05:00 Legend Double Dagger -8.0 -12.3 71 16 15 16.1 101.54   -14 LegendNANA
06:00 Legend Double Dagger -8.1 -11.9 75 17 13 16.1 101.56   -14 LegendNANA
07:00 Legend Double Dagger -8.3 -11.2 80 16 11 16.1 101.54   -14 LegendNANA
08:00 Legend Double Dagger -8.0 -11.9 74 13 5 16.1 101.51   -11 LegendNANA
09:00 Legend Double Dagger -7.9 -12.0 73 16 13 16.1 101.49   -14 LegendNANA
10:00 Legend Double Dagger -7.7 -11.7 73 17 13 11.3 101.47   -13 LegendNANA
11:00 Legend Double Dagger -7.5 -11.8 71 16 15 16.1 101.44   -14 LegendNANA
12:00 Legend Double Dagger -7.2 -12.3 67 14 15 16.1 101.44   -13 LegendNANA
13:00 Legend Double Dagger -6.8 -12.6 63 17 9 16.1 101.43   -11 LegendNANA
14:00 Legend Double Dagger -6.7 -12.8 62 18 9 16.1 101.42   -11 LegendNANA
15:00 Legend Double Dagger -7.4 -10.3 80 8 8 3.2 101.44   -11 LegendNANA
16:00 Legend Double Dagger -7.5 -11.9 71 12 8 16.1 101.43   -12 LegendNANA
17:00 Legend Double Dagger -8.3 -12.3 73 14 9 16.1 101.41   -13 LegendNANA
18:00 Legend Double Dagger -10.7 -13.9 78 14 13 16.1 101.38   -17 LegendNANA
19:00 Legend Double Dagger -11.6 -14.7 78 13 17 16.1 101.38   -19 LegendNANA
20:00 Legend Double Dagger -12.3 -15.1 80 14 18 16.1 101.37   -20 LegendNANA
21:00 Legend Double Dagger -12.3 -15.4 78 14 17 16.1 101.36   -20 LegendNANA
22:00 Legend Double Dagger -12.9 -15.8 79 14 17 16.1 101.36   -21 LegendNANA
23:00 Legend Double Dagger -12.8 -15.9 78 14 15 16.1 101.34   -20 LegendNANA

Notes on Data Quality.

Legend

  • E = Estimated
  • M = Missing
  • NA = Not Available
  • ‡ = Partner data that is not subject to review by the National Climate Archives
Date modified: